| time (UTC) | temp F | wind direction | speed MPH | gust MPH | rain 1hr in | rain 24hr in | rain mn in | humidity % | barometer mb |
| 20260508013032 | 50 | 0 | 0.0 | 0.0 | 0.00 | 0.00 | 0.00 | 65 | 1009.4 |
| 20260508011531 | 50 | 0 | 0.0 | 0.0 | 0.00 | 0.00 | 0.00 | 65 | 1009.3 |
| 20260508010037 | 52 | 0 | 0.0 | 0.0 | 0.00 | 0.00 | 0.00 | 60 | 1009.2 |
| 20260508004541 | 53 | 0 | 0.0 | 0.0 | 0.00 | 0.00 | 0.00 | 58 | 1008.8 |
| 20260508003027 | 54 | 0 | 0.0 | 0.0 | 0.00 | 0.00 | 0.00 | 54 | 1008.9 |
| 20260508001537 | 55 | 0 | 0.0 | 0.0 | 0.00 | 0.00 | 0.00 | 46 | 1008.6 |
| 20260508000031 | 57 | 0 | 0.0 | 0.0 | 0.00 | 0.00 | 0.00 | 41 | 1008.5 |
| 20260507234533 | 58 | 0 | 0.0 | 0.0 | 0.00 | 0.00 | 0.00 | 38 | 1008.4 |
| 20260507233030 | 59 | 0 | 0.0 | 0.0 | 0.00 | 0.00 | 0.00 | 36 | 1008.4 |
| 20260507231527 | 60 | 0 | 0.0 | 0.0 | 0.00 | 0.00 | 0.00 | 45 | 1008.2 |
| 20260507230028 | 61 | 0 | 0.0 | 1.0 | 0.00 | 0.00 | 0.00 | 33 | 1008.1 |
| 20260507224530 | 62 | 0 | 0.0 | 2.0 | 0.00 | 0.00 | 0.00 | 42 | 1008.1 |
| 20260507223029 | 62 | 0 | 0.0 | 2.0 | 0.00 | 0.00 | 0.00 | 43 | 1008.1 |
| 20260507221536 | 61 | 0 | 0.0 | 1.0 | 0.00 | 0.00 | 0.00 | 42 | 1008.3 |
| 20260507220028 | 61 | 0 | 0.0 | 1.0 | 0.00 | 0.00 | 0.00 | 33 | 1008.2 |
| 20260507214528 | 62 | 0 | 0.0 | 2.0 | 0.00 | 0.00 | 0.00 | 31 | 1008.4 |
| 20260507213031 | 64 | 0 | 0.0 | 4.0 | 0.00 | 0.00 | 0.00 | 39 | 1008.3 |
| 20260507211529 | 67 | 303 | 0.0 | 5.0 | 0.00 | 0.00 | 0.00 | 37 | 1008.2 |
| 20260507210028 | 67 | 0 | 0.0 | 6.0 | 0.00 | 0.00 | 0.00 | 24 | 1008.1 |
| 20260507204529 | 67 | 246 | 1.0 | 8.0 | 0.00 | 0.00 | 0.00 | 34 | 1007.9 |
| 20260507203039 | 66 | 329 | 2.0 | 9.0 | 0.00 | 0.00 | 0.00 | 37 | 1008.0 |
| 20260507201530 | 67 | 267 | 0.0 | 9.0 | 0.00 | 0.00 | 0.00 | 38 | 1008.0 |
| 20260507200030 | 67 | 300 | 1.0 | 7.0 | 0.00 | 0.00 | 0.00 | 35 | 1008.2 |
| 20260507194531 | 66 | 113 | 0.0 | 5.0 | 0.00 | 0.00 | 0.00 | 38 | 1008.3 |
| 20260507193030 | 66 | 288 | 1.0 | 7.0 | 0.00 | 0.00 | 0.00 | 40 | 1008.5 |
| 20260507191532 | 66 | 222 | 0.0 | 5.0 | 0.00 | 0.00 | 0.00 | 38 | 1008.6 |
| 20260507190030 | 65 | 284 | 1.0 | 8.0 | 0.00 | 0.00 | 0.00 | 41 | 1008.8 |
| 20260507184531 | 65 | 289 | 1.0 | 5.0 | 0.00 | 0.00 | 0.00 | 40 | 1009.1 |
| 20260507183028 | 65 | 317 | 1.0 | 8.0 | 0.00 | 0.00 | 0.00 | 41 | 1009.4 |
| 20260507181528 | 65 | 289 | 0.0 | 5.0 | 0.00 | 0.00 | 0.00 | 41 | 1009.3 |
| 20260507180028 | 64 | 76 | 0.0 | 3.0 | 0.00 | 0.00 | 0.00 | 45 | 1009.4 |
| 20260507174538 | 63 | 324 | 2.0 | 8.0 | 0.00 | 0.00 | 0.00 | 37 | 1009.7 |
| 20260507173052 | 63 | 207 | 1.0 | 7.0 | 0.00 | 0.00 | 0.00 | 48 | 1010.0 |
| 20260507171530 | 62 | 302 | 2.0 | 9.0 | 0.00 | 0.00 | 0.00 | 47 | 1010.3 |
| 20260507170032 | 61 | 208 | 1.0 | 7.0 | 0.00 | 0.00 | 0.00 | 43 | 1010.4 |
| 20260507164533 | 60 | 0 | 0.0 | 10.0 | 0.00 | 0.00 | 0.00 | 46 | 1010.9 |
| 20260507163029 | 62 | 0 | 0.0 | 4.0 | 0.00 | 0.00 | 0.00 | 52 | 1010.8 |
| 20260507161540 | 62 | 296 | 1.0 | 5.0 | 0.00 | 0.00 | 0.00 | 50 | 1011.2 |
| 20260507160028 | 60 | 150 | 0.0 | 7.0 | 0.00 | 0.00 | 0.00 | 55 | 1011.3 |
| 20260507154528 | 60 | 0 | 1.0 | 7.0 | 0.00 | 0.00 | 0.00 | 56 | 1011.3 |
| 20260507153029 | 59 | 255 | 1.0 | 7.0 | 0.00 | 0.00 | 0.00 | 52 | 1011.5 |
| 20260507151530 | 59 | 251 | 2.0 | 7.0 | 0.00 | 0.00 | 0.00 | 55 | 1011.8 |
| 20260507150038 | 58 | 309 | 1.0 | 8.0 | 0.00 | 0.00 | 0.00 | 61 | 1011.8 |
| 20260507144531 | 58 | 343 | 0.0 | 5.0 | 0.00 | 0.00 | 0.00 | 63 | 1012.0 |
| 20260507143030 | 56 | 285 | 0.0 | 7.0 | 0.00 | 0.00 | 0.00 | 67 | 1012.2 |
| 20260507141545 | 56 | 0 | 0.0 | 5.0 | 0.00 | 0.00 | 0.00 | 63 | 1012.2 |
| 20260507140029 | 55 | 0 | 1.0 | 6.0 | 0.00 | 0.00 | 0.00 | 67 | 1012.2 |
| 20260507134529 | 53 | 309 | 0.0 | 5.0 | 0.00 | 0.00 | 0.00 | 81 | 1012.1 |
| 20260507133045 | 52 | 309 | 1.0 | 4.0 | 0.00 | 0.00 | 0.00 | 85 | 1012.2 |
| 20260507131530 | 51 | 345 | 0.0 | 2.0 | 0.00 | 0.00 | 0.00 | 79 | 1012.2 |
| 20260507130034 | 50 | 0 | 0.0 | 3.0 | 0.00 | 0.00 | 0.00 | 81 | 1012.2 |
| 20260507124529 | 50 | 0 | 0.0 | 3.0 | 0.00 | 0.00 | 0.00 | 82 | 1012.2 |
| 20260507123036 | 50 | 0 | 0.0 | 0.0 | 0.00 | 0.00 | 0.00 | 84 | 1012.2 |
| 20260507121530 | 49 | 0 | 0.0 | 1.0 | 0.00 | 0.00 | 0.00 | 84 | 1012.3 |
| 20260507120034 | 49 | 0 | 0.0 | 0.0 | 0.00 | 0.00 | 0.00 | 84 | 1012.3 |
| 20260507114529 | 49 | 0 | 0.0 | 1.0 | 0.00 | 0.00 | 0.00 | 85 | 1012.0 |
| 20260507113034 | 49 | 298 | 0.0 | 1.0 | 0.00 | 0.00 | 0.00 | 85 | 1012.0 |
| 20260507111530 | 49 | 0 | 0.0 | 1.0 | 0.00 | 0.00 | 0.00 | 86 | 1011.9 |
| 20260507110039 | 49 | 0 | 0.0 | 1.0 | 0.00 | 0.00 | 0.00 | 86 | 1011.5 |
| 20260507104531 | 49 | 0 | 0.0 | 0.0 | 0.00 | 0.00 | 0.00 | 86 | 1011.6 |
| 20260507101536 | 48 | 0 | 0.0 | 0.0 | 0.00 | 0.00 | 0.00 | 86 | 1010.8 |
| 20260507100035 | 48 | 0 | 0.0 | 0.0 | 0.00 | 0.00 | 0.00 | 86 | 1010.8 |
| 20260507094536 | 48 | 0 | 0.0 | 1.0 | 0.00 | 0.00 | 0.00 | 85 | 1010.8 |
| 20260507093030 | 48 | 0 | 0.0 | 0.0 | 0.00 | 0.00 | 0.00 | 85 | 1010.7 |
| 20260507091534 | 48 | 0 | 0.0 | 2.0 | 0.00 | 0.00 | 0.00 | 85 | 1010.4 |
| 20260507090031 | 48 | 0 | 0.0 | 1.0 | 0.00 | 0.00 | 0.00 | 85 | 1010.4 |
| 20260507084533 | 48 | 0 | 0.0 | 1.0 | 0.00 | 0.00 | 0.00 | 85 | 1010.4 |
| 20260507083030 | 48 | 0 | 0.0 | 1.0 | 0.00 | 0.00 | 0.00 | 85 | 1010.3 |
| 20260507081536 | 48 | 0 | 0.0 | 1.0 | 0.00 | 0.00 | 0.00 | 85 | 1010.6 |
| 20260507080030 | 48 | 0 | 0.0 | 3.0 | 0.00 | 0.00 | 0.00 | 84 | 1010.9 |
| 20260507074530 | 49 | 0 | 0.0 | 6.0 | 0.00 | 0.00 | 0.00 | 84 | 1010.9 |
| 20260507073031 | 49 | 0 | 0.0 | 7.0 | 0.00 | 0.00 | 0.00 | 84 | 1011.2 |
| 20260507071530 | 49 | 304 | 0.0 | 5.0 | 0.00 | 0.00 | 0.00 | 84 | 1010.8 |
| 20260507070040 | 49 | 0 | 0.0 | 6.0 | 0.00 | 0.00 | 0.00 | 84 | 1010.8 |
| 20260507064527 | 50 | 333 | 0.0 | 5.0 | 0.00 | 0.00 | 0.00 | 84 | 1010.9 |
| 20260507063034 | 50 | 5 | 0.0 | 4.0 | 0.00 | 0.00 | 0.00 | 84 | 1010.8 |
| 20260507061531 | 50 | 0 | 0.0 | 4.0 | 0.00 | 0.00 | 0.00 | 83 | 1010.4 |
| 20260507060028 | 51 | 0 | 0.0 | 4.0 | 0.00 | 0.00 | 0.00 | 82 | 1010.4 |
| 20260507054527 | 52 | 0 | 0.0 | 5.0 | 0.00 | 0.00 | 0.00 | 80 | 1010.8 |
| 20260507053027 | 53 | 309 | 0.0 | 4.0 | 0.00 | 0.00 | 0.00 | 76 | 1010.7 |
| 20260507051529 | 54 | 0 | 0.0 | 4.0 | 0.00 | 0.00 | 0.00 | 73 | 1009.8 |
| 20260507050030 | 54 | 0 | 0.0 | 3.0 | 0.00 | 0.00 | 0.00 | 72 | 1009.4 |
| 20260507044528 | 55 | 0 | 0.0 | 4.0 | 0.00 | 0.00 | 0.00 | 72 | 1009.3 |
| 20260507043029 | 55 | 0 | 0.0 | 6.0 | 0.00 | 0.00 | 0.00 | 72 | 1009.9 |
| 20260507041528 | 55 | 311 | 0.0 | 6.0 | 0.00 | 0.00 | 0.00 | 73 | 1009.8 |
| 20260507040040 | 56 | 0 | 0.0 | 4.0 | 0.00 | 0.00 | 0.00 | 76 | 1009.7 |
| 20260507034530 | 56 | 0 | 0.0 | 5.0 | 0.00 | 0.00 | 0.00 | 77 | 1009.7 |
| 20260507033037 | 56 | 283 | 1.0 | 5.0 | 0.00 | 0.00 | 0.00 | 78 | 1009.5 |
| 20260507031544 | 57 | 298 | 0.0 | 5.0 | 0.00 | 0.00 | 0.00 | 79 | 1009.5 |
| 20260507030032 | 59 | 0 | 0.0 | 8.0 | 0.00 | 0.00 | 0.00 | 80 | 1009.1 |
| 20260507024527 | 63 | 0 | 0.0 | 0.0 | 0.00 | 0.00 | 0.00 | 83 | 1008.9 |
| 20260507023030 | 64 | 0 | 0.0 | 2.0 | 0.00 | 0.00 | 0.00 | 81 | 1008.8 |
| 20260507021527 | 65 | 0 | 0.0 | 0.0 | 0.00 | 0.00 | 0.00 | 78 | 1008.8 |
| 20260507020030 | 66 | 0 | 0.0 | 1.0 | 0.00 | 0.00 | 0.00 | 75 | 1008.8 |
| 20260507014540 | 66 | 0 | 0.0 | 1.0 | 0.00 | 0.00 | 0.00 | 74 | 1008.8 |